星链-31378 (STARLINK-31378 )

导读

STARLINK-31378是美国SpaceX公司星链(Starlink)星座的一员,于2024年2月10日发射入轨。星链星座旨在构建全球低轨卫星互联网,该卫星采用平板设计,搭载氪工质霍尔推进器与Ku/Ka波段通信载荷,运行于近地轨道。它承担全球宽带接入服务,可覆盖偏远地区,并支持海事、航空等移动场景通信,是星链二代星座组网过程中的重要组成部分,助力推进全球卫星互联网覆盖规模与服务能力提升。

Basic Information
目录编号:
58932
目录名称:
STARLINK-31378
国际标识:
2024-027B
轨道中心:
EARTH
卫星名称:
星链-31378
卫星全名:
星链-31378 (STARLINK-31378 )
卫星状态:
在轨 (已飞行859 天)
发射日期:
2024-02-10 UTC
国别 :
美国 (US)
星等 :
--
Orbit Information
数据来源 国际轨道数据 AOE轨道数据
星历时间 2026-06-17T17:39:34+0800
20小时前
查看轨道信息
2026-06-17T06:00:00+0800
1天前
查看轨道信息
半长轴 6848.86km 6848.869km
偏心率 0.0001065 0.000138
轨道倾角 53.160° 53.163°
近地点辐角 86.887° 31.375°
升交点赤经 205.842° 208.107°
平近点角 273.226° 168.392°
近地点 469.993km 469.786km
远地点 471.453km 471.678km
周期 94.013分钟 94.013分钟
每日圈数 15.317058 15.317027
Detailed Information
固有亮度:
5
最大亮度:
0.3
卫星平台:
Starlink v2.0 mini
覆盖范围:
全球
运营商:
太空探索技术公司
运营商所在国:
美国
制造商(研发单位):
太空探索技术公司
制造商所在国:
美国
使用方式:
暂无
Satellite Introduction
星链(Starlink)计划是由太空探索技术公司(SpaceX)提出的一个巨型低轨卫星互联网星座项目,计划在2019年至2024年间在太空搭建由约1.2万颗卫星组成的“星链”网络,其中1584颗将部署在地球上空550千米处的近地轨道,并从2020年开始工作。该卫星仍在工作。
2D Orbit Map
3D Orbit Map
Orbit Altitude Analysis Chart
Orbit Inclination Analysis Chart
Orbit Comprehensive Analysis Chart
View Comprehensive Chart